This is the latest recevied weather packets stored in our database for station/object KO4DYK. If no packets are shown the sender has not sent any weather packets the latest 10 day(s).
| Time | Temp. | Humidity | Pressure | Rain* | Wind** | Luminosity | Snow |
|---|---|---|---|---|---|---|---|
| 1788108617 | 33.33° C | 61% | 1020.6 hPa | 0 mm | - | 741 W/m² | - |
| 1788108313 | 33.89° C | 60% | 1020.5 hPa | 0 mm | - | 726 W/m² | - |
| 1788108009 | 32.22° C | 61% | 1020.6 hPa | 0 mm | - | 727 W/m² | - |
| 1788107706 | 32.78° C | 61% | 1020.7 hPa | 0 mm | - | 721 W/m² | - |
| 1788107404 | 32.78° C | 62% | 1020.6 hPa | 0 mm | - | 695 W/m² | - |
| 1788107101 | 33.33° C | 63% | 1020.7 hPa | 0 mm | - | 661 W/m² | - |
| 1788106800 | 33.33° C | 65% | 1020.7 hPa | 0 mm | - | 596 W/m² | - |
| 1788106495 | 33.33° C | 63% | 1020.7 hPa | 0 mm | - | 678 W/m² | - |
| 1788106190 | 32.22° C | 67% | 1020.9 hPa | 0 mm | - | 640 W/m² | - |
| 1788105886 | 32.22° C | 66% | 1021.1 hPa | 0 mm | - | 626 W/m² | - |
| 1788105581 | 32.22° C | 68% | 1020.7 hPa | 0 mm | - | 638 W/m² | - |
| 1788105278 | 31.67° C | 70% | 1020.8 hPa | 0 mm | - | 658 W/m² | - |
| 1788104972 | 31.67° C | 69% | 1020.7 hPa | 0 mm | - | 622 W/m² | - |
| 1788104668 | 31.67° C | 70% | 1021 hPa | 0 mm | - | 595 W/m² | - |
| 1788104365 | 31.67° C | 70% | 1020.9 hPa | 0 mm | - | 595 W/m² | - |
| 1788104060 | 31.11° C | 72% | 1020.9 hPa | 0 mm | - | 650 W/m² | - |
| 1788103759 | 31.11° C | 72% | 1020.9 hPa | 0 mm | - | 600 W/m² | - |
| 1788103455 | 30.56° C | 74% | 1020.9 hPa | 0 mm | - | 547 W/m² | - |
| 1788103154 | 31.11° C | 74% | 1021 hPa | 0 mm | - | 559 W/m² | - |
| 1788102854 | 30.56° C | 74% | 1021 hPa | 0 mm | - | 563 W/m² | - |
| 1788102549 | 30.56° C | 74% | 1021 hPa | 0 mm | - | 529 W/m² | - |
| 1788102249 | 30° C | 76% | 1021 hPa | 0 mm | - | 498 W/m² | - |
| 1788101942 | 30° C | 76% | 1021 hPa | 0 mm | - | 464 W/m² | - |
| 1788101637 | 30° C | 77% | 1021 hPa | 0 mm | - | 471 W/m² | - |
| 1788101332 | 29.44° C | 78% | 1021 hPa | 0 mm | - | 475 W/m² | - |
* Rain latest hour (hover to see other rain measurements)
** Current wind speed in m/s (hover to see current wind gust speed)